Погода в Кызыле

Россия / Республика Тыва     51°43′08″N   94°26′15″E
темп.,
°C
ветер,
м/с
пор.,
м/с
влажн.,
%
обл.,
%
осадки,
мм/ч
давл.,
гПа
погр.,
м
16 мая, вс
вс1601:00+11ссв225189 0.0 102013
04:00+12вюв114988 0.0 101915
07:00+12юв114537 0.0 1020258
10:00+16юз013732 0.0 10181052
13:00+20зюз243021 0.0 10151996
16:00+21ссз6731100 0.0 10122276
19:00+17с454523 0.0 1012583
22:00+14с125716 0.0 101112
17 мая, пн
пн1701:00+12ссв226499 0.2 101114
04:00+11ссз117083 0.1 101010
07:00+15сз3654100 0.1 1010544
10:00+12с41076100 1.6 1011645
13:00+17сз5647100 1.8 10101417
16:00+18сз793964 0.0 10091533
19:00+17сз6743100 0.0 10101242
22:00+13ссз2259100 0.0 101126
18 мая, вт
вт1801:00+13зсз236497 0.3 1011145
04:00+11зсз2273100 0.1 101126
07:00+13сз475741 0.1 1011855
10:00+16сз5840100 0.0 10101740
13:00+18зюз3537100 0.0 10082137
16:00+17сз6947100 0.2 10061504
19:00+13ссз4870100 1.6 1007593
22:00+12ююз2281100 2.1 1006224
19 мая, ср
ср1901:00+11св1187100 2.1 100510
04:00+11ссв1186100 0.3 100415
07:00+13ю017899 0.4 1003184
10:00+19сз594025 0.2 10022219
13:00+20зсз2434100 0.2 9992073
16:00+21юз7931100 0.1 9952488
19:00+16юз355374 0.6 996826
22:00+14вюв226698 0.0 99631
20 мая, чт
чт2001:00+13в2277100 0.9 99477
04:00+13ссз41068100 1.4 994893
07:00+9сз81442100 2.4 9991064
10:00+7сз7946100 0.1 10031041
13:00+9с4542100 0.2 10031817
16:00+10ссз5636100 0.1 10022041
19:00+6ссз7839100 0.3 10061412
22:00+5ссз5639100 0.1 10091102